Time,TemperatureF,DewpointF,PressureIn,WindDirection,WindDirectionDegrees,WindSpeedMPH,WindSpeedGustMPH,Humidity,HourlyPrecipIn,Conditions,Clouds,dailyrainin,SoftwareType,DateUTC
2013-08-20 00:00:00,61.1,61.1,30.14,ESE,114,2.0,2.0,100,0.00,,---,1.49,VWS V14.01,2013-08-20 04:00:00,
2013-08-20 00:01:00,61.1,61.1,30.14,ESE,114,2.0,2.0,100,0.00,,---,0.00,VWS V14.01,2013-08-20 04:01:00,
2013-08-20 00:06:00,61.2,61.2,30.14,ESE,114,3.0,3.0,100,0.00,,---,0.00,VWS V14.01,2013-08-20 04:06:00,
2013-08-20 00:11:00,61.1,61.1,30.14,ESE,114,1.0,1.0,100,0.00,,---,0.00,VWS V14.01,2013-08-20 04:11:00,
2013-08-20 00:16:00,61.1,61.1,30.14,ESE,114,1.0,2.0,100,0.00,,---,0.00,VWS V14.01,2013-08-20 04:16:00,
2013-08-20 00:21:00,61.1,61.1,30.14,ESE,114,0.0,0.0,100,0.00,,---,0.00,VWS V14.01,2013-08-20 04:21:00,
2013-08-20 00:26:00,61.1,61.1,30.14,ESE,114,0.0,0.0,100,0.00,,---,0.00,VWS V14.01,2013-08-20 04:26:00,
2013-08-20 00:31:00,61.1,61.1,30.14,ESE,114,0.0,0.0,100,0.00,,---,0.00,VWS V14.01,2013-08-20 04:31:00,
2013-08-20 00:36:00,61.1,61.1,30.14,ESE,114,1.0,1.0,100,0.00,,---,0.00,VWS V14.01,2013-08-20 04:36:00,
2013-08-20 00:41:00,61.1,61.1,30.14,ESE,114,0.0,0.0,100,0.00,,---,0.00,VWS V14.01,2013-08-20 04:41:00,
2013-08-20 00:46:00,61.1,61.1,30.14,ESE,114,0.0,2.0,100,0.00,,---,0.00,VWS V14.01,2013-08-20 04:46:00,
2013-08-20 00:51:00,61.1,61.1,30.14,ESE,114,1.0,1.0,100,0.00,,---,0.00,VWS V14.01,2013-08-20 04:51:00,
2013-08-20 00:56:00,61.1,61.1,30.14,ESE,114,1.0,1.0,100,0.00,,---,0.00,VWS V14.01,2013-08-20 04:56:00,
2013-08-20 01:01:00,61.0,61.0,30.14,ESE,114,0.0,0.0,100,0.00,,---,0.00,VWS V14.01,2013-08-20 05:01:00,
2013-08-20 01:06:00,60.9,60.9,30.14,ESE,114,0.0,1.0,100,0.00,,---,0.00,VWS V14.01,2013-08-20 05:06:00,
2013-08-20 01:11:00,60.9,60.9,30.14,ESE,114,1.0,1.0,100,0.00,,---,0.00,VWS V14.01,2013-08-20 05:11:00,
2013-08-20 01:16:00,60.7,60.7,30.13,ESE,114,1.0,1.0,100,0.00,,---,0.00,VWS V14.01,2013-08-20 05:16:00,
2013-08-20 01:21:00,60.5,60.5,30.14,SE,145,1.0,2.0,100,0.00,,---,0.00,VWS V14.01,2013-08-20 05:21:00,
2013-08-20 01:26:00,60.4,60.4,30.13,SE,145,0.0,0.0,100,0.00,,---,0.00,VWS V14.01,2013-08-20 05:26:00,
2013-08-20 01:31:00,60.2,60.2,30.13,SE,145,1.0,2.0,100,0.00,,---,0.00,VWS V14.01,2013-08-20 05:31:00,
2013-08-20 01:36:00,60.1,60.1,30.13,SE,145,0.0,0.0,100,0.00,,---,0.00,VWS V14.01,2013-08-20 05:36:00,
2013-08-20 01:41:00,59.9,59.9,30.13,SE,145,0.0,1.0,100,0.00,,---,0.00,VWS V14.01,2013-08-20 05:41:00,
2013-08-20 01:46:00,59.9,59.9,30.13,SE,145,0.0,1.0,100,0.00,,---,0.00,VWS V14.01,2013-08-20 05:46:00,
2013-08-20 01:51:00,59.9,59.9,30.13,SE,145,0.0,0.0,100,0.00,,---,0.00,VWS V14.01,2013-08-20 05:51:00,
2013-08-20 01:56:00,60.0,60.0,30.12,SE,145,0.0,0.0,100,0.00,,---,0.00,VWS V14.01,2013-08-20 05:56:00,
2013-08-20 02:01:00,59.9,59.9,30.12,SE,145,1.0,1.0,100,0.00,,---,0.00,VWS V14.01,2013-08-20 06:01:00,
2013-08-20 02:06:00,59.8,59.8,30.12,SE,145,0.0,1.0,100,0.00,,---,0.00,VWS V14.01,2013-08-20 06:06:00,
2013-08-20 02:11:00,59.6,59.6,30.11,SE,145,0.0,0.0,100,0.00,,---,0.00,VWS V14.01,2013-08-20 06:11:00,
2013-08-20 02:16:00,59.4,59.4,30.11,SE,145,0.0,0.0,100,0.00,,---,0.00,VWS V14.01,2013-08-20 06:16:00,
2013-08-20 02:21:00,59.1,59.1,30.11,SE,145,0.0,1.0,100,0.00,,---,0.00,VWS V14.01,2013-08-20 06:21:00,
2013-08-20 02:26:00,59.2,59.2,30.11,SE,145,1.0,1.0,100,0.00,,---,0.00,VWS V14.01,2013-08-20 06:26:00,
2013-08-20 02:31:00,59.0,59.0,30.11,SE,145,1.0,2.0,100,0.00,,---,0.00,VWS V14.01,2013-08-20 06:31:00,
2013-08-20 02:36:00,58.9,58.9,30.11,SE,145,2.0,3.0,100,0.00,,---,0.00,VWS V14.01,2013-08-20 06:36:00,
2013-08-20 02:41:00,58.9,58.9,30.11,SE,145,1.0,2.0,100,0.00,,---,0.00,VWS V14.01,2013-08-20 06:41:00,
2013-08-20 02:46:00,58.9,58.9,30.11,SE,145,2.0,2.0,100,0.00,,---,0.00,VWS V14.01,2013-08-20 06:46:00,
2013-08-20 02:51:00,58.8,58.8,30.11,SE,145,1.0,2.0,100,0.00,,---,0.00,VWS V14.01,2013-08-20 06:51:00,
2013-08-20 02:56:00,58.8,58.8,30.11,SE,145,2.0,2.0,100,0.00,,---,0.00,VWS V14.01,2013-08-20 06:56:00,
2013-08-20 03:01:00,58.8,58.8,30.11,SE,145,2.0,3.0,100,0.00,,---,0.00,VWS V14.01,2013-08-20 07:01:00,
2013-08-20 03:06:00,58.7,58.7,30.11,SE,145,3.0,3.0,100,0.00,,---,0.00,VWS V14.01,2013-08-20 07:06:00,
2013-08-20 03:11:00,58.9,58.9,30.11,SE,145,2.0,3.0,100,0.00,,---,0.00,VWS V14.01,2013-08-20 07:11:00,
2013-08-20 03:16:00,58.9,58.9,30.11,SE,145,2.0,2.0,100,0.00,,---,0.00,VWS V14.01,2013-08-20 07:16:00,
2013-08-20 03:21:00,58.9,58.9,30.11,SE,145,2.0,2.0,100,0.00,,---,0.00,VWS V14.01,2013-08-20 07:21:00,
2013-08-20 03:26:00,59.0,59.0,30.11,SE,145,2.0,2.0,100,0.00,,---,0.00,VWS V14.01,2013-08-20 07:26:00,
2013-08-20 03:31:00,58.8,58.8,30.11,SE,145,2.0,3.0,100,0.00,,---,0.00,VWS V14.01,2013-08-20 07:31:00,
2013-08-20 03:36:00,58.7,58.7,30.10,SE,145,3.0,3.0,100,0.00,,---,0.00,VWS V14.01,2013-08-20 07:36:00,
2013-08-20 03:41:00,58.9,58.9,30.10,SE,145,4.0,4.0,100,0.00,,---,0.00,VWS V14.01,2013-08-20 07:41:00,
2013-08-20 03:46:00,59.1,59.1,30.10,SE,145,2.0,4.0,100,0.00,,---,0.00,VWS V14.01,2013-08-20 07:46:00,
2013-08-20 03:51:00,59.3,59.3,30.11,SE,145,1.0,3.0,100,0.00,,---,0.00,VWS V14.01,2013-08-20 07:51:00,
2013-08-20 03:56:00,59.3,59.3,30.10,SE,145,2.0,3.0,100,0.00,,---,0.00,VWS V14.01,2013-08-20 07:56:00,
2013-08-20 04:01:00,59.2,59.2,30.11,SE,145,2.0,2.0,100,0.00,,---,0.00,VWS V14.01,2013-08-20 08:01:00,
2013-08-20 04:06:00,59.2,59.2,30.10,SE,145,1.0,2.0,100,0.00,,---,0.00,VWS V14.01,2013-08-20 08:06:00,
2013-08-20 04:11:00,58.9,58.9,30.10,SE,145,1.0,4.0,100,0.00,,---,0.00,VWS V14.01,2013-08-20 08:11:00,
2013-08-20 04:16:00,59.1,59.1,30.11,SE,145,2.0,3.0,100,0.00,,---,0.00,VWS V14.01,2013-08-20 08:16:00,
2013-08-20 04:21:00,59.1,59.1,30.11,SE,145,2.0,2.0,100,0.00,,---,0.00,VWS V14.01,2013-08-20 08:21:00,
2013-08-20 04:26:00,59.0,59.0,30.11,SE,145,1.0,1.0,100,0.00,,---,0.00,VWS V14.01,2013-08-20 08:26:00,
2013-08-20 04:31:00,59.2,59.2,30.11,SE,145,0.0,0.0,100,0.00,,---,0.00,VWS V14.01,2013-08-20 08:31:00,
2013-08-20 04:36:00,58.9,58.9,30.11,SE,145,0.0,0.0,100,0.00,,---,0.00,VWS V14.01,2013-08-20 08:36:00,
2013-08-20 04:41:00,58.8,58.8,30.11,SE,145,0.0,1.0,100,0.00,,---,0.00,VWS V14.01,2013-08-20 08:41:00,
2013-08-20 04:46:00,58.6,58.6,30.11,SSE,152,1.0,2.0,100,0.00,,---,0.00,VWS V14.01,2013-08-20 08:46:00,
2013-08-20 04:51:00,58.5,58.5,30.11,SSE,153,1.0,2.0,100,0.00,,---,0.00,VWS V14.01,2013-08-20 08:51:00,
2013-08-20 04:56:00,58.3,58.3,30.11,WSW,255,3.0,3.0,100,0.00,,---,0.00,VWS V14.01,2013-08-20 08:56:00,
2013-08-20 05:01:00,58.1,58.1,30.11,West,264,2.0,3.0,100,0.00,,---,0.00,VWS V14.01,2013-08-20 09:01:00,
2013-08-20 05:06:00,58.1,58.1,30.11,West,264,1.0,2.0,100,0.00,,---,0.00,VWS V14.01,2013-08-20 09:06:00,
2013-08-20 05:11:00,58.3,58.3,30.11,West,264,0.0,0.0,100,0.00,,---,0.00,VWS V14.01,2013-08-20 09:11:00,
2013-08-20 05:16:00,58.7,58.7,30.11,West,264,0.0,0.0,100,0.00,,---,0.00,VWS V14.01,2013-08-20 09:16:00,
2013-08-20 05:21:00,58.9,58.9,30.11,West,264,0.0,0.0,100,0.00,,---,0.00,VWS V14.01,2013-08-20 09:21:00,
2013-08-20 05:26:00,58.9,58.9,30.11,West,264,0.0,0.0,100,0.01,,---,0.01,VWS V14.01,2013-08-20 09:26:00,
2013-08-20 05:31:00,58.7,58.7,30.11,West,264,0.0,0.0,100,0.01,,---,0.01,VWS V14.01,2013-08-20 09:31:00,
2013-08-20 05:36:00,58.8,58.8,30.11,West,264,0.0,0.0,100,0.01,,---,0.01,VWS V14.01,2013-08-20 09:36:00,
2013-08-20 05:41:00,58.9,58.9,30.11,West,264,0.0,0.0,100,0.01,,---,0.01,VWS V14.01,2013-08-20 09:41:00,
2013-08-20 05:46:00,58.8,58.8,30.11,West,264,1.0,1.0,100,0.01,,---,0.01,VWS V14.01,2013-08-20 09:46:00,
2013-08-20 05:51:00,58.7,58.7,30.11,West,264,1.0,1.0,100,0.01,,---,0.01,VWS V14.01,2013-08-20 09:51:00,
2013-08-20 05:56:00,58.6,58.6,30.11,West,264,2.0,2.0,100,0.01,,---,0.01,VWS V14.01,2013-08-20 09:56:00,
2013-08-20 06:01:00,58.4,58.4,30.11,West,264,0.0,1.0,100,0.01,,---,0.01,VWS V14.01,2013-08-20 10:01:00,
2013-08-20 06:06:00,58.4,58.4,30.11,West,264,1.0,1.0,100,0.01,,---,0.01,VWS V14.01,2013-08-20 10:06:00,
2013-08-20 06:11:00,58.5,58.5,30.12,West,264,1.0,1.0,100,0.01,,---,0.01,VWS V14.01,2013-08-20 10:11:00,
2013-08-20 06:16:00,58.3,58.3,30.12,West,264,2.0,2.0,100,0.01,,---,0.01,VWS V14.01,2013-08-20 10:16:00,
2013-08-20 06:21:00,57.9,57.9,30.12,West,264,2.0,3.0,100,0.01,,---,0.01,VWS V14.01,2013-08-20 10:21:00,
2013-08-20 06:26:00,57.9,57.9,30.12,West,264,1.0,3.0,100,0.00,,---,0.01,VWS V14.01,2013-08-20 10:26:00,
2013-08-20 06:30:00,57.8,57.8,30.12,West,277,3.0,3.0,100,0.00,,---,0.01,VWS V14.01,2013-08-20 10:30:00,
2013-08-20 06:35:00,57.8,57.8,30.12,West,277,2.0,3.0,100,0.00,,---,0.01,VWS V14.01,2013-08-20 10:35:00,
2013-08-20 06:40:00,58.1,58.1,30.12,NW,306,2.0,3.0,100,0.00,,---,0.01,VWS V14.01,2013-08-20 10:40:00,
2013-08-20 06:45:00,58.1,58.1,30.12,WNW,295,2.0,4.0,100,0.00,,---,0.01,VWS V14.01,2013-08-20 10:45:00,
2013-08-20 06:50:00,57.8,57.8,30.12,WNW,285,3.0,4.0,100,0.00,,---,0.01,VWS V14.01,2013-08-20 10:50:00,
2013-08-20 06:55:00,57.8,57.8,30.12,WNW,294,3.0,3.0,100,0.00,,---,0.01,VWS V14.01,2013-08-20 10:55:00,
2013-08-20 07:00:00,57.8,57.8,30.12,WNW,288,2.0,4.0,100,0.00,,---,0.01,VWS V14.01,2013-08-20 11:00:00,
2013-08-20 07:05:00,57.8,57.8,30.12,WNW,296,1.0,2.0,100,0.00,,---,0.01,VWS V14.01,2013-08-20 11:05:00,
2013-08-20 07:10:00,57.9,57.9,30.13,WNW,299,1.0,2.0,100,0.00,,---,0.01,VWS V14.01,2013-08-20 11:10:00,
2013-08-20 07:15:00,58.0,58.0,30.13,WNW,299,1.0,3.0,100,0.00,,---,0.01,VWS V14.01,2013-08-20 11:15:00,
2013-08-20 07:20:00,58.3,58.3,30.13,WNW,297,1.0,3.0,100,0.00,,---,0.01,VWS V14.01,2013-08-20 11:20:00,
2013-08-20 07:25:00,58.6,58.6,30.13,West,277,2.0,3.0,100,0.00,,---,0.01,VWS V14.01,2013-08-20 11:25:00,
2013-08-20 07:30:00,58.7,58.7,30.13,WNW,299,3.0,3.0,100,0.00,,---,0.01,VWS V14.01,2013-08-20 11:30:00,
2013-08-20 07:35:00,58.8,58.8,30.13,West,272,2.0,4.0,100,0.00,,---,0.01,VWS V14.01,2013-08-20 11:35:00,
2013-08-20 07:40:00,59.1,59.1,30.14,WNW,287,3.0,3.0,100,0.00,,---,0.01,VWS V14.01,2013-08-20 11:40:00,
2013-08-20 07:45:00,59.2,59.2,30.14,WNW,295,2.0,3.0,100,0.00,,---,0.01,VWS V14.01,2013-08-20 11:45:00,
2013-08-20 07:50:00,59.3,59.3,30.14,WNW,284,3.0,3.0,100,0.00,,---,0.01,VWS V14.01,2013-08-20 11:50:00,
2013-08-20 07:55:00,59.3,59.3,30.14,NW,306,1.0,2.0,100,0.00,,---,0.01,VWS V14.01,2013-08-20 11:55:00,
2013-08-20 08:00:00,59.4,59.4,30.14,NW,321,3.0,3.0,100,0.00,,---,0.01,VWS V14.01,2013-08-20 12:00:00,
2013-08-20 08:05:00,59.5,59.5,30.14,WNW,298,2.0,3.0,100,0.00,,---,0.01,VWS V14.01,2013-08-20 12:05:00,
2013-08-20 08:10:00,60.3,60.3,30.14,WNW,297,3.0,3.0,100,0.00,,---,0.01,VWS V14.01,2013-08-20 12:10:00,
2013-08-20 08:15:00,60.5,60.5,30.13,WNW,293,2.0,2.0,100,0.00,,---,0.01,VWS V14.01,2013-08-20 12:15:00,
2013-08-20 08:20:00,61.1,61.1,30.13,WNW,295,3.0,3.0,100,0.00,,---,0.01,VWS V14.01,2013-08-20 12:20:00,
2013-08-20 08:25:00,61.4,61.4,30.14,WNW,303,3.0,3.0,100,0.00,,---,0.01,VWS V14.01,2013-08-20 12:25:00,
2013-08-20 08:30:00,61.6,61.6,30.14,WNW,296,1.0,3.0,100,0.00,,---,0.01,VWS V14.01,2013-08-20 12:30:00,
2013-08-20 08:35:00,61.5,61.5,30.14,WNW,293,3.0,3.0,100,0.00,,---,0.01,VWS V14.01,2013-08-20 12:35:00,
2013-08-20 08:40:00,60.8,60.8,30.14,WNW,292,3.0,3.0,100,0.00,,---,0.01,VWS V14.01,2013-08-20 12:40:00,
2013-08-20 08:45:00,61.0,61.0,30.15,West,278,3.0,3.0,100,0.00,,---,0.01,VWS V14.01,2013-08-20 12:45:00,
2013-08-20 08:50:00,61.3,61.3,30.15,West,281,2.0,3.0,100,0.00,,---,0.01,VWS V14.01,2013-08-20 12:50:00,
2013-08-20 08:55:00,61.3,61.3,30.15,West,281,2.0,2.0,100,0.00,,---,0.01,VWS V14.01,2013-08-20 12:55:00,
2013-08-20 09:00:00,61.2,61.2,30.15,WNW,283,2.0,2.0,100,0.00,,---,0.01,VWS V14.01,2013-08-20 13:00:00,
2013-08-20 09:05:00,61.4,61.4,30.15,West,276,0.0,0.0,100,0.00,,---,0.01,VWS V14.01,2013-08-20 13:05:00,
2013-08-20 09:10:00,61.5,61.5,30.15,WNW,287,2.0,2.0,100,0.00,,---,0.01,VWS V14.01,2013-08-20 13:10:00,
2013-08-20 09:15:00,61.8,61.8,30.15,WNW,294,1.0,2.0,100,0.00,,---,0.01,VWS V14.01,2013-08-20 13:15:00,
2013-08-20 09:20:00,61.9,61.9,30.16,NW,319,1.0,1.0,100,0.00,,---,0.01,VWS V14.01,2013-08-20 13:20:00,
2013-08-20 09:25:00,62.1,62.1,30.16,NW,308,2.0,2.0,100,0.00,,---,0.01,VWS V14.01,2013-08-20 13:25:00,
2013-08-20 09:30:00,62.2,62.2,30.16,NW,315,1.0,1.0,100,0.00,,---,0.01,VWS V14.01,2013-08-20 13:30:00,
2013-08-20 09:35:00,62.0,62.0,30.16,NW,315,0.0,0.0,100,0.00,,---,0.01,VWS V14.01,2013-08-20 13:35:00,
2013-08-20 09:40:00,61.8,61.8,30.16,NW,315,0.0,0.0,100,0.00,,---,0.01,VWS V14.01,2013-08-20 13:40:00,
2013-08-20 09:45:00,61.9,61.9,30.16,NW,315,1.0,1.0,100,0.00,,---,0.01,VWS V14.01,2013-08-20 13:45:00,
2013-08-20 09:50:00,62.3,62.3,30.16,NW,315,1.0,1.0,100,0.00,,---,0.01,VWS V14.01,2013-08-20 13:50:00,
2013-08-20 09:55:00,61.8,61.8,30.16,NW,315,0.0,0.0,100,0.00,,---,0.01,VWS V14.01,2013-08-20 13:55:00,
2013-08-20 10:00:00,62.3,62.3,30.16,NW,315,0.0,0.0,100,0.00,,---,0.01,VWS V14.01,2013-08-20 14:00:00,
2013-08-20 10:05:00,62.4,62.4,30.17,NW,315,0.0,0.0,100,0.00,,---,0.01,VWS V14.01,2013-08-20 14:05:00,
2013-08-20 10:10:00,62.4,62.4,30.17,NW,315,0.0,1.0,100,0.00,,---,0.01,VWS V14.01,2013-08-20 14:10:00,
2013-08-20 10:15:00,62.4,62.4,30.17,NW,315,0.0,0.0,100,0.00,,---,0.01,VWS V14.01,2013-08-20 14:15:00,
2013-08-20 10:20:00,62.2,62.2,30.17,NW,315,0.0,0.0,100,0.00,,---,0.01,VWS V14.01,2013-08-20 14:20:00,
2013-08-20 10:25:00,62.4,62.4,30.17,NW,315,0.0,0.0,100,0.00,,---,0.01,VWS V14.01,2013-08-20 14:25:00,
2013-08-20 10:30:00,62.7,62.7,30.17,NW,315,0.0,1.0,100,0.00,,---,0.01,VWS V14.01,2013-08-20 14:30:00,
2013-08-20 10:35:00,62.8,62.8,30.18,NW,314,0.0,1.0,100,0.00,,---,0.01,VWS V14.01,2013-08-20 14:35:00,
2013-08-20 10:40:00,62.6,62.6,30.18,NW,315,0.0,0.0,100,0.00,,---,0.01,VWS V14.01,2013-08-20 14:40:00,
2013-08-20 10:45:00,62.7,62.7,30.18,NW,315,0.0,1.0,100,0.00,,---,0.01,VWS V14.01,2013-08-20 14:45:00,
2013-08-20 10:50:00,63.1,63.1,30.18,NW,315,2.0,2.0,100,0.00,,---,0.01,VWS V14.01,2013-08-20 14:50:00,
2013-08-20 10:55:00,63.4,63.4,30.18,NW,315,1.0,1.0,100,0.00,,---,0.01,VWS V14.01,2013-08-20 14:55:00,
2013-08-20 11:00:00,62.9,62.9,30.18,NW,315,0.0,1.0,100,0.00,,---,0.01,VWS V14.01,2013-08-20 15:00:00,
2013-08-20 11:05:00,63.8,63.8,30.18,NW,315,1.0,2.0,100,0.00,,---,0.01,VWS V14.01,2013-08-20 15:05:00,
2013-08-20 11:10:00,64.3,64.3,30.18,ESE,121,1.0,3.0,100,0.00,,---,0.01,VWS V14.01,2013-08-20 15:10:00,
2013-08-20 11:15:00,64.7,64.7,30.18,SSE,153,0.0,2.0,100,0.00,,---,0.01,VWS V14.01,2013-08-20 15:15:00,
2013-08-20 11:20:00,64.2,64.2,30.18,SSE,153,0.0,1.0,100,0.00,,---,0.01,VWS V14.01,2013-08-20 15:20:00,
2013-08-20 11:25:00,64.5,64.5,30.18,SE,144,2.0,2.0,100,0.00,,---,0.01,VWS V14.01,2013-08-20 15:25:00,
2013-08-20 11:30:00,64.7,64.7,30.19,SE,144,2.0,2.0,100,0.00,,---,0.01,VWS V14.01,2013-08-20 15:30:00,
2013-08-20 11:35:00,65.1,65.1,30.19,SE,131,1.0,2.0,100,0.00,,---,0.01,VWS V14.01,2013-08-20 15:35:00,
2013-08-20 11:40:00,65.2,65.2,30.19,SE,131,1.0,3.0,100,0.00,,---,0.01,VWS V14.01,2013-08-20 15:40:00,
2013-08-20 11:45:00,65.3,65.3,30.19,ESE,105,4.0,6.0,100,0.00,,---,0.01,VWS V14.01,2013-08-20 15:45:00,
2013-08-20 11:50:00,66.1,66.1,30.19,ESE,119,2.0,5.0,100,0.00,,---,0.01,VWS V14.01,2013-08-20 15:50:00,
2013-08-20 11:55:00,66.8,66.8,30.18,SE,135,3.0,3.0,100,0.00,,---,0.01,VWS V14.01,2013-08-20 15:55:00,
2013-08-20 12:00:00,66.3,66.3,30.18,SE,134,1.0,2.0,100,0.00,,---,0.01,VWS V14.01,2013-08-20 16:00:00,
2013-08-20 12:05:00,65.8,65.8,30.18,SSE,162,3.0,3.0,100,0.00,,---,0.01,VWS V14.01,2013-08-20 16:05:00,
2013-08-20 12:10:00,65.7,65.7,30.18,SE,128,1.0,3.0,100,0.00,,---,0.01,VWS V14.01,2013-08-20 16:10:00,
2013-08-20 12:15:00,65.1,65.1,30.18,ESE,114,3.0,5.0,100,0.00,,---,0.01,VWS V14.01,2013-08-20 16:15:00,
2013-08-20 12:20:00,65.0,65.0,30.18,ESE,120,3.0,6.0,100,0.00,,---,0.01,VWS V14.01,2013-08-20 16:20:00,
2013-08-20 12:25:00,64.8,64.8,30.18,ESE,117,1.0,5.0,100,0.00,,---,0.01,VWS V14.01,2013-08-20 16:25:00,
2013-08-20 12:30:00,65.0,65.0,30.18,ESE,118,2.0,3.0,100,0.00,,---,0.01,VWS V14.01,2013-08-20 16:30:00,
2013-08-20 12:35:00,65.0,65.0,30.18,ESE,104,1.0,4.0,100,0.00,,---,0.01,VWS V14.01,2013-08-20 16:35:00,
2013-08-20 12:40:00,65.0,65.0,30.18,ESE,114,3.0,7.0,100,0.00,,---,0.01,VWS V14.01,2013-08-20 16:40:00,
2013-08-20 12:45:00,65.0,65.0,30.19,ESE,116,6.0,6.0,100,0.00,,---,0.01,VWS V14.01,2013-08-20 16:45:00,
2013-08-20 12:50:00,65.0,65.0,30.18,ESE,115,2.0,5.0,100,0.00,,---,0.01,VWS V14.01,2013-08-20 16:50:00,
2013-08-20 12:55:00,65.2,65.2,30.18,SE,124,1.0,5.0,100,0.00,,---,0.01,VWS V14.01,2013-08-20 16:55:00,
2013-08-20 13:00:00,65.2,65.2,30.18,ESE,122,2.0,3.0,100,0.00,,---,0.01,VWS V14.01,2013-08-20 17:00:00,
2013-08-20 13:05:00,65.3,65.3,30.18,SSE,157,2.0,3.0,100,0.00,,---,0.01,VWS V14.01,2013-08-20 17:05:00,
2013-08-20 13:10:00,65.2,65.2,30.18,SSE,160,5.0,5.0,100,0.00,,---,0.01,VWS V14.01,2013-08-20 17:10:00,
2013-08-20 13:15:00,65.3,65.3,30.18,SE,132,2.0,2.0,100,0.00,,---,0.01,VWS V14.01,2013-08-20 17:15:00,
2013-08-20 13:20:00,65.5,65.5,30.18,ESE,117,5.0,5.0,100,0.00,,---,0.01,VWS V14.01,2013-08-20 17:20:00,
2013-08-20 13:25:00,65.3,65.3,30.18,SE,124,6.0,7.0,100,0.00,,---,0.01,VWS V14.01,2013-08-20 17:25:00,
2013-08-20 13:30:00,65.3,65.3,30.18,SE,126,5.0,7.0,100,0.00,,---,0.01,VWS V14.01,2013-08-20 17:30:00,
2013-08-20 13:35:00,65.1,65.1,30.18,East,92,1.0,7.0,100,0.00,,---,0.01,VWS V14.01,2013-08-20 17:35:00,
2013-08-20 13:40:00,65.1,65.1,30.18,ESE,118,7.0,7.0,100,0.00,,---,0.01,VWS V14.01,2013-08-20 17:40:00,
2013-08-20 13:45:00,65.2,65.2,30.18,ESE,121,6.0,9.0,100,0.00,,---,0.01,VWS V14.01,2013-08-20 17:45:00,
2013-08-20 13:50:00,65.7,65.7,30.17,South,180,6.0,7.0,100,0.00,,---,0.01,VWS V14.01,2013-08-20 17:50:00,
2013-08-20 13:55:00,66.5,66.5,30.17,ESE,105,2.0,9.0,100,0.00,,---,0.01,VWS V14.01,2013-08-20 17:55:00,
2013-08-20 14:00:00,66.1,66.1,30.17,SE,135,4.0,5.0,100,0.00,,---,0.01,VWS V14.01,2013-08-20 18:00:00,
2013-08-20 14:05:00,66.4,66.4,30.17,ESE,111,5.0,8.0,100,0.00,,---,0.01,VWS V14.01,2013-08-20 18:05:00,
2013-08-20 14:10:00,66.7,66.4,30.17,ESE,113,1.0,5.0,99,0.00,,---,0.01,VWS V14.01,2013-08-20 18:10:00,
2013-08-20 14:15:00,66.3,66.3,30.17,SE,125,0.0,3.0,100,0.00,,---,0.01,VWS V14.01,2013-08-20 18:15:00,
2013-08-20 14:20:00,66.2,66.2,30.17,East,101,4.0,7.0,100,0.00,,---,0.01,VWS V14.01,2013-08-20 18:20:00,
2013-08-20 14:25:00,66.6,66.6,30.17,SE,126,2.0,3.0,100,0.00,,---,0.01,VWS V14.01,2013-08-20 18:25:00,
2013-08-20 14:30:00,66.3,66.3,30.17,ESE,111,2.0,5.0,100,0.00,,---,0.01,VWS V14.01,2013-08-20 18:30:00,
2013-08-20 14:35:00,66.0,66.0,30.17,ESE,119,2.0,5.0,100,0.00,,---,0.01,VWS V14.01,2013-08-20 18:35:00,
2013-08-20 14:40:00,66.5,66.5,30.16,ESE,118,1.0,5.0,100,0.00,,---,0.01,VWS V14.01,2013-08-20 18:40:00,
2013-08-20 14:45:00,67.6,67.3,30.16,South,180,5.0,5.0,99,0.00,,---,0.01,VWS V14.01,2013-08-20 18:45:00,
2013-08-20 14:50:00,67.6,66.7,30.16,East,86,1.0,4.0,97,0.00,,---,0.01,VWS V14.01,2013-08-20 18:50:00,
2013-08-20 14:55:00,67.9,67.6,30.16,SSE,151,3.0,4.0,99,0.00,,---,0.01,VWS V14.01,2013-08-20 18:55:00,
2013-08-20 15:00:00,69.3,68.1,30.16,SSE,148,3.0,4.0,96,0.00,,---,0.01,VWS V14.01,2013-08-20 19:00:00,
2013-08-20 15:05:00,70.1,68.3,30.15,SE,126,5.0,5.0,94,0.00,,---,0.01,VWS V14.01,2013-08-20 19:05:00,
2013-08-20 15:10:00,68.9,66.5,30.15,East,96,2.0,3.0,92,0.00,,---,0.01,VWS V14.01,2013-08-20 19:10:00,
2013-08-20 15:15:00,68.8,68.2,30.15,South,185,3.0,5.0,98,0.00,,---,0.01,VWS V14.01,2013-08-20 19:15:00,
2013-08-20 15:20:00,69.4,67.6,30.15,ESE,110,3.0,5.0,94,0.00,,---,0.01,VWS V14.01,2013-08-20 19:20:00,
2013-08-20 15:25:00,69.1,67.9,30.14,SE,127,2.0,3.0,96,0.00,,---,0.01,VWS V14.01,2013-08-20 19:25:00,
2013-08-20 15:30:00,69.5,68.3,30.14,ESE,121,1.0,7.0,96,0.00,,---,0.01,VWS V14.01,2013-08-20 19:30:00,
2013-08-20 15:35:00,69.8,67.7,30.14,ESE,119,5.0,8.0,93,0.00,,---,0.01,VWS V14.01,2013-08-20 19:35:00,
2013-08-20 15:40:00,68.4,66.6,30.14,ESE,108,2.0,4.0,94,0.00,,---,0.01,VWS V14.01,2013-08-20 19:40:00,
2013-08-20 15:45:00,68.4,66.9,30.14,South,174,3.0,5.0,95,0.00,,---,0.01,VWS V14.01,2013-08-20 19:45:00,
2013-08-20 15:50:00,67.6,66.4,30.13,ESE,108,3.0,4.0,96,0.00,,---,0.01,VWS V14.01,2013-08-20 19:50:00,
2013-08-20 15:55:00,68.5,67.3,30.13,SE,141,1.0,2.0,96,0.00,,---,0.01,VWS V14.01,2013-08-20 19:55:00,
2013-08-20 16:00:00,68.5,67.6,30.13,East,93,2.0,5.0,97,0.00,,---,0.01,VWS V14.01,2013-08-20 20:00:00,
2013-08-20 16:05:00,68.4,67.2,30.13,SE,130,2.0,5.0,96,0.00,,---,0.01,VWS V14.01,2013-08-20 20:05:00,
2013-08-20 16:10:00,67.6,66.4,30.13,SE,138,2.0,4.0,96,0.00,,---,0.01,VWS V14.01,2013-08-20 20:10:00,
2013-08-20 16:15:00,67.7,66.5,30.13,ESE,120,1.0,6.0,96,0.00,,---,0.01,VWS V14.01,2013-08-20 20:15:00,
2013-08-20 16:20:00,68.8,67.6,30.13,SE,137,3.0,4.0,96,0.00,,---,0.01,VWS V14.01,2013-08-20 20:20:00,
2013-08-20 16:25:00,68.8,67.0,30.13,ESE,114,1.0,3.0,94,0.00,,---,0.01,VWS V14.01,2013-08-20 20:25:00,
2013-08-20 16:30:00,68.5,67.0,30.13,East,85,1.0,3.0,95,0.00,,---,0.01,VWS V14.01,2013-08-20 20:30:00,
2013-08-20 16:35:00,68.2,66.7,30.13,ESE,116,3.0,6.0,95,0.00,,---,0.01,VWS V14.01,2013-08-20 20:35:00,
2013-08-20 16:40:00,68.1,66.6,30.13,SE,146,3.0,4.0,95,0.00,,---,0.01,VWS V14.01,2013-08-20 20:40:00,
2013-08-20 16:45:00,67.5,66.6,30.13,SSE,165,3.0,4.0,97,0.00,,---,0.01,VWS V14.01,2013-08-20 20:45:00,
2013-08-20 16:50:00,67.4,66.8,30.12,SSE,162,2.0,4.0,98,0.00,,---,0.01,VWS V14.01,2013-08-20 20:50:00,
2013-08-20 16:55:00,67.6,66.7,30.13,ESE,121,2.0,3.0,97,0.00,,---,0.01,VWS V14.01,2013-08-20 20:55:00,
2013-08-20 17:00:00,67.2,66.6,30.13,ESE,108,1.0,1.0,98,0.00,,---,0.01,VWS V14.01,2013-08-20 21:00:00,
2013-08-20 17:05:00,67.9,67.3,30.13,South,185,3.0,3.0,98,0.00,,---,0.01,VWS V14.01,2013-08-20 21:05:00,
2013-08-20 17:10:00,67.9,67.0,30.13,ESE,122,3.0,3.0,97,0.00,,---,0.01,VWS V14.01,2013-08-20 21:10:00,
2013-08-20 17:15:00,67.6,66.7,30.13,South,170,2.0,3.0,97,0.00,,---,0.01,VWS V14.01,2013-08-20 21:15:00,
2013-08-20 17:20:00,67.6,67.0,30.13,ESE,121,2.0,3.0,98,0.00,,---,0.01,VWS V14.01,2013-08-20 21:20:00,
2013-08-20 17:25:00,67.9,67.0,30.13,SE,127,1.0,2.0,97,0.00,,---,0.01,VWS V14.01,2013-08-20 21:25:00,
2013-08-20 17:30:00,67.7,66.8,30.14,SSE,153,2.0,3.0,97,0.00,,---,0.01,VWS V14.01,2013-08-20 21:30:00,
2013-08-20 17:35:00,67.4,66.5,30.14,SE,134,1.0,2.0,97,0.00,,---,0.01,VWS V14.01,2013-08-20 21:35:00,
2013-08-20 17:40:00,67.4,66.5,30.14,South,175,2.0,4.0,97,0.00,,---,0.01,VWS V14.01,2013-08-20 21:40:00,
2013-08-20 17:45:00,67.2,66.3,30.13,SSE,168,4.0,4.0,97,0.00,,---,0.01,VWS V14.01,2013-08-20 21:45:00,
2013-08-20 17:50:00,67.3,66.7,30.14,SSE,166,2.0,3.0,98,0.00,,---,0.01,VWS V14.01,2013-08-20 21:50:00,
2013-08-20 17:54:00,67.3,66.7,30.13,ESE,111,2.0,3.0,98,0.00,,---,0.01,VWS V14.01,2013-08-20 21:54:00,
2013-08-20 17:59:00,67.1,66.8,30.13,ESE,119,2.0,2.0,99,0.00,,---,0.01,VWS V14.01,2013-08-20 21:59:00,
2013-08-20 18:04:00,67.2,66.9,30.13,SSE,153,1.0,1.0,99,0.00,,---,0.01,VWS V14.01,2013-08-20 22:04:00,
2013-08-20 18:09:00,67.0,66.7,30.13,SSE,164,4.0,4.0,99,0.00,,---,0.01,VWS V14.01,2013-08-20 22:09:00,
2013-08-20 18:14:00,66.5,65.9,30.13,SSE,162,3.0,3.0,98,0.00,,---,0.01,VWS V14.01,2013-08-20 22:14:00,
2013-08-20 18:19:00,66.1,65.8,30.13,SSE,159,4.0,4.0,99,0.00,,---,0.01,VWS V14.01,2013-08-20 22:19:00,
2013-08-20 18:24:00,65.8,65.5,30.13,SSE,162,1.0,2.0,99,0.00,,---,0.01,VWS V14.01,2013-08-20 22:24:00,
2013-08-20 18:29:00,65.6,65.6,30.14,ESE,108,2.0,2.0,100,0.00,,---,0.01,VWS V14.01,2013-08-20 22:29:00,
2013-08-20 18:34:00,65.4,65.4,30.14,SSE,166,2.0,3.0,100,0.00,,---,0.01,VWS V14.01,2013-08-20 22:34:00,
2013-08-20 18:39:00,65.2,65.2,30.14,ESE,117,2.0,2.0,100,0.00,,---,0.01,VWS V14.01,2013-08-20 22:39:00,
2013-08-20 18:44:00,65.3,65.3,30.14,ESE,117,2.0,2.0,100,0.00,,---,0.01,VWS V14.01,2013-08-20 22:44:00,
2013-08-20 18:49:00,65.3,65.3,30.14,SE,142,2.0,2.0,100,0.00,,---,0.01,VWS V14.01,2013-08-20 22:49:00,
2013-08-20 18:54:00,65.3,65.3,30.14,SE,130,3.0,3.0,100,0.00,,---,0.01,VWS V14.01,2013-08-20 22:54:00,
2013-08-20 18:59:00,65.2,65.2,30.14,ESE,118,1.0,2.0,100,0.00,,---,0.01,VWS V14.01,2013-08-20 22:59:00,
2013-08-20 19:04:00,65.2,65.2,30.14,ESE,120,2.0,3.0,100,0.00,,---,0.01,VWS V14.01,2013-08-20 23:04:00,
2013-08-20 19:09:00,65.1,65.1,30.14,ESE,118,1.0,2.0,100,0.00,,---,0.01,VWS V14.01,2013-08-20 23:09:00,
2013-08-20 19:14:00,64.9,64.9,30.14,SE,125,1.0,2.0,100,0.00,,---,0.01,VWS V14.01,2013-08-20 23:14:00,
2013-08-20 19:19:00,64.9,64.9,30.14,SE,124,3.0,3.0,100,0.00,,---,0.01,VWS V14.01,2013-08-20 23:19:00,
2013-08-20 19:24:00,64.8,64.8,30.13,SE,124,3.0,3.0,100,0.00,,---,0.01,VWS V14.01,2013-08-20 23:24:00,
2013-08-20 19:29:00,64.7,64.7,30.14,ESE,122,6.0,6.0,100,0.00,,---,0.01,VWS V14.01,2013-08-20 23:29:00,
2013-08-20 19:34:00,64.6,64.6,30.14,ESE,118,3.0,3.0,100,0.00,,---,0.01,VWS V14.01,2013-08-20 23:34:00,
2013-08-20 19:39:00,64.5,64.5,30.14,ESE,123,1.0,2.0,100,0.00,,---,0.01,VWS V14.01,2013-08-20 23:39:00,
2013-08-20 19:44:00,64.4,64.4,30.14,ESE,110,2.0,2.0,100,0.00,,---,0.01,VWS V14.01,2013-08-20 23:44:00,
2013-08-20 19:49:00,64.4,64.4,30.15,ESE,114,1.0,1.0,100,0.00,,---,0.01,VWS V14.01,2013-08-20 23:49:00,
2013-08-20 19:54:00,64.3,64.3,30.15,ESE,115,1.0,1.0,100,0.00,,---,0.01,VWS V14.01,2013-08-20 23:54:00,
2013-08-20 19:59:00,64.4,64.4,30.15,SSE,160,1.0,2.0,100,0.00,,---,0.01,VWS V14.01,2013-08-20 23:59:00,
2013-08-20 20:04:00,64.3,64.3,30.15,ESE,123,1.0,1.0,100,0.00,,---,0.01,VWS V14.01,2013-08-21 00:04:00,
2013-08-20 20:09:00,64.2,64.2,30.15,SE,124,2.0,5.0,100,0.00,,---,0.01,VWS V14.01,2013-08-21 00:09:00,
2013-08-20 20:14:00,64.1,64.1,30.16,SE,126,3.0,5.0,100,0.00,,---,0.01,VWS V14.01,2013-08-21 00:14:00,
2013-08-20 20:19:00,64.1,64.1,30.16,ESE,116,0.0,2.0,100,0.00,,---,0.01,VWS V14.01,2013-08-21 00:19:00,
2013-08-20 20:24:00,64.1,64.1,30.15,SE,124,1.0,3.0,100,0.00,,---,0.01,VWS V14.01,2013-08-21 00:24:00,
2013-08-20 20:29:00,64.0,64.0,30.15,SE,129,3.0,3.0,100,0.00,,---,0.01,VWS V14.01,2013-08-21 00:29:00,
2013-08-20 20:34:00,64.0,64.0,30.15,SE,137,2.0,2.0,100,0.00,,---,0.01,VWS V14.01,2013-08-21 00:34:00,
2013-08-20 20:39:00,64.0,64.0,30.15,SE,125,5.0,5.0,100,0.00,,---,0.01,VWS V14.01,2013-08-21 00:39:00,
2013-08-20 20:44:00,64.0,64.0,30.15,SE,125,1.0,2.0,100,0.00,,---,0.01,VWS V14.01,2013-08-21 00:44:00,
2013-08-20 20:49:00,64.0,64.0,30.16,SE,125,2.0,2.0,100,0.00,,---,0.01,VWS V14.01,2013-08-21 00:49:00,
2013-08-20 20:54:00,64.0,64.0,30.15,SE,125,1.0,3.0,100,0.00,,---,0.01,VWS V14.01,2013-08-21 00:54:00,
2013-08-20 20:59:00,63.9,63.9,30.15,ESE,120,5.0,5.0,100,0.00,,---,0.01,VWS V14.01,2013-08-21 00:59:00,
2013-08-20 21:04:00,63.8,63.8,30.15,East,93,4.0,4.0,100,0.00,,---,0.01,VWS V14.01,2013-08-21 01:04:00,
2013-08-20 21:09:00,63.7,63.7,30.15,ESE,110,3.0,3.0,100,0.00,,---,0.01,VWS V14.01,2013-08-21 01:09:00,
2013-08-20 21:14:00,63.6,63.6,30.15,ESE,114,2.0,5.0,100,0.00,,---,0.01,VWS V14.01,2013-08-21 01:14:00,
2013-08-20 21:19:00,63.6,63.6,30.15,ESE,120,3.0,3.0,100,0.00,,---,0.01,VWS V14.01,2013-08-21 01:19:00,
2013-08-20 21:24:00,63.4,63.4,30.15,SE,124,2.0,3.0,100,0.00,,---,0.01,VWS V14.01,2013-08-21 01:24:00,
2013-08-20 21:29:00,63.3,63.3,30.16,ESE,123,3.0,3.0,100,0.00,,---,0.01,VWS V14.01,2013-08-21 01:29:00,
2013-08-20 21:34:00,63.3,63.3,30.16,ESE,117,3.0,3.0,100,0.00,,---,0.01,VWS V14.01,2013-08-21 01:34:00,
2013-08-20 21:39:00,63.2,63.2,30.16,ESE,117,3.0,3.0,100,0.00,,---,0.01,VWS V14.01,2013-08-21 01:39:00,
2013-08-20 21:44:00,63.2,63.2,30.17,ESE,117,2.0,2.0,100,0.00,,---,0.01,VWS V14.01,2013-08-21 01:44:00,
2013-08-20 21:49:00,63.2,63.2,30.17,ESE,117,1.0,2.0,100,0.00,,---,0.01,VWS V14.01,2013-08-21 01:49:00,
2013-08-20 21:54:00,63.2,63.2,30.17,ESE,117,0.0,0.0,100,0.00,,---,0.01,VWS V14.01,2013-08-21 01:54:00,
2013-08-20 21:59:00,63.2,63.2,30.17,ESE,117,1.0,5.0,100,0.00,,---,0.01,VWS V14.01,2013-08-21 01:59:00,
2013-08-20 22:04:00,63.1,63.1,30.17,East,85,0.0,5.0,100,0.00,,---,0.01,VWS V14.01,2013-08-21 02:04:00,
2013-08-20 22:09:00,63.1,63.1,30.17,SE,126,3.0,6.0,100,0.00,,---,0.01,VWS V14.01,2013-08-21 02:09:00,
2013-08-20 22:14:00,63.2,63.2,30.17,ESE,112,3.0,3.0,100,0.00,,---,0.01,VWS V14.01,2013-08-21 02:14:00,
2013-08-20 22:19:00,63.1,63.1,30.17,ESE,114,3.0,3.0,100,0.00,,---,0.01,VWS V14.01,2013-08-21 02:19:00,
2013-08-20 22:24:00,63.1,63.1,30.17,SE,128,3.0,5.0,100,0.00,,---,0.01,VWS V14.01,2013-08-21 02:24:00,
2013-08-20 22:29:00,63.1,63.1,30.17,SE,127,2.0,3.0,100,0.00,,---,0.01,VWS V14.01,2013-08-21 02:29:00,
2013-08-20 22:34:00,63.0,63.0,30.17,SE,127,2.0,2.0,100,0.00,,---,0.01,VWS V14.01,2013-08-21 02:34:00,
2013-08-20 22:39:00,63.1,63.1,30.18,SE,131,1.0,2.0,100,0.00,,---,0.01,VWS V14.01,2013-08-21 02:39:00,
2013-08-20 22:44:00,63.1,63.1,30.18,SE,131,2.0,3.0,100,0.00,,---,0.01,VWS V14.01,2013-08-21 02:44:00,
2013-08-20 22:49:00,63.1,63.1,30.18,SE,131,2.0,2.0,100,0.00,,---,0.01,VWS V14.01,2013-08-21 02:49:00,
2013-08-20 22:54:00,63.1,63.1,30.18,SE,131,2.0,2.0,100,0.00,,---,0.01,VWS V14.01,2013-08-21 02:54:00,
2013-08-20 22:59:00,63.1,63.1,30.18,SE,128,3.0,5.0,100,0.00,,---,0.01,VWS V14.01,2013-08-21 02:59:00,
2013-08-20 23:04:00,63.1,63.1,30.18,ESE,117,3.0,5.0,100,0.00,,---,0.01,VWS V14.01,2013-08-21 03:04:00,
2013-08-20 23:09:00,63.1,63.1,30.19,SE,137,3.0,3.0,100,0.00,,---,0.01,VWS V14.01,2013-08-21 03:09:00,
2013-08-20 23:14:00,63.1,63.1,30.19,SE,124,2.0,3.0,100,0.00,,---,0.01,VWS V14.01,2013-08-21 03:14:00,
2013-08-20 23:19:00,63.1,63.1,30.19,ESE,112,2.0,3.0,100,0.00,,---,0.01,VWS V14.01,2013-08-21 03:19:00,
2013-08-20 23:24:00,63.0,63.0,30.19,ESE,122,3.0,5.0,100,0.00,,---,0.01,VWS V14.01,2013-08-21 03:24:00,
2013-08-20 23:29:00,62.9,62.9,30.19,ESE,122,2.0,5.0,100,0.00,,---,0.01,VWS V14.01,2013-08-21 03:29:00,
2013-08-20 23:34:00,62.9,62.9,30.19,ESE,122,2.0,3.0,100,0.00,,---,0.01,VWS V14.01,2013-08-21 03:34:00,
2013-08-20 23:39:00,62.9,62.9,30.19,ESE,118,5.0,5.0,100,0.00,,---,0.01,VWS V14.01,2013-08-21 03:39:00,
2013-08-20 23:44:00,62.8,62.8,30.19,ESE,116,2.0,3.0,100,0.00,,---,0.01,VWS V14.01,2013-08-21 03:44:00,
2013-08-20 23:49:00,62.8,62.8,30.19,ESE,117,3.0,5.0,100,0.00,,---,0.01,VWS V14.01,2013-08-21 03:49:00,
2013-08-20 23:54:00,62.9,62.9,30.20,ESE,114,2.0,5.0,100,0.00,,---,0.01,VWS V14.01,2013-08-21 03:54:00,
2013-08-20 23:59:00,62.8,62.8,30.19,ENE,76,3.0,6.0,100,0.00,,---,0.01,VWS V14.01,2013-08-21 03:59:00,